This is the latest recevied weather packets stored in our database for station/object EA8EE-7. If no packets are shown the sender has not sent any weather packets the latest 10 day(s).
| Time | Temp. | Humidity | Pressure | Rain* | Wind** | Luminosity | Snow |
|---|---|---|---|---|---|---|---|
| 1788559062 | 35.56° C | 36% | 1026.7 hPa | - | - | - | - |
| 1788557862 | 36.11° C | 35% | 1023.6 hPa | - | - | - | - |
| 1788557262 | 36.67° C | 35% | 1023.3 hPa | - | - | - | - |
| 1788556662 | 36.11° C | 35% | 1020.2 hPa | - | - | - | - |
| 1788556062 | 36.11° C | 35% | 965.7 hPa | - | - | - | - |
| 1788555462 | 36.11° C | 34% | 949.4 hPa | - | - | - | - |
| 1788554262 | 35.56° C | 35% | 1025.6 hPa | - | - | - | - |
| 1788553662 | 35.56° C | 34% | 1028.5 hPa | - | - | - | - |
| 1788552928 | 35.56° C | 34% | 1025.4 hPa | - | - | - | - |
| 1788552328 | 35.56° C | 34% | 1024.5 hPa | - | - | - | - |
| 1788551728 | 35.56° C | 34% | 1023.7 hPa | - | - | - | - |
| 1788551128 | 35° C | 34% | 1022.3 hPa | - | - | - | - |
| 1788550528 | 35° C | 34% | 1024 hPa | - | - | - | - |
| 1788549928 | 35.56° C | 33% | 1023.5 hPa | - | - | - | - |
| 1788549328 | 35.56° C | 33% | 1024.8 hPa | - | - | - | - |
| 1788548728 | 35.56° C | 33% | 1028.4 hPa | - | - | - | - |
| 1788548128 | 35.56° C | 33% | 1006.4 hPa | - | - | - | - |
| 1788547528 | 35.56° C | 32% | 1027.9 hPa | - | - | - | - |
| 1788546928 | 36.67° C | 31% | 1026.3 hPa | - | - | - | - |
| 1788546328 | 36.67° C | 31% | 1026 hPa | - | - | - | - |
| 1788545287 | 36.11° C | 32% | 1025.5 hPa | - | - | - | - |
| 1788544687 | 36.11° C | 32% | 1025.6 hPa | - | - | - | - |
| 1788543322 | 35° C | 36% | 1025.8 hPa | - | - | - | - |
| 1788542722 | 35° C | 36% | 1024.4 hPa | - | - | - | - |
| 1788541522 | 35° C | 36% | 1022.2 hPa | - | - | - | - |
* Rain since midnight (hover to see other rain measurements)
** Current wind speed in m/s (hover to see current wind gust speed)